Miscellaneous Local Product
Issued by NWS Hastings, NE

Home | Current Version | Previous Version | Graphics & Text | Print | Product List | Glossary On
Versions: 1 2 3 4 5 6 7 8 9 10 11 12 13 14 15 16 17 18 19 20 21 22 23 24 25 26 27 28 29 30 31 32 33 34 35 36 37 38 39 40 41 42 43 44 45 46 47 48 49 50
332
AXUS43 KGID 211602
MISGRI

GID CWA HOURLY WEATHER ROUNDUP
NATIONAL WEATHER SERVICE HASTINGS NE
1000 AM CST SAT JAN 21 2017

NOTE: "FAIR" INDICATES FEW OR NO CLOUDS BELOW 12,000 FEET WITH NO
SIGNIFICANT WEATHER AND/OR OBSTRUCTIONS TO VISIBILITY.

...SOUTH CENTRAL NEBRASKA...

CITY           SKY/WX    TMP DP  RH WIND       PRES   REMARKS
GRAND ISLAND   SUNNY     38  36  92 W8        29.43F WCI  32
HASTINGS       SUNNY     37  34  89 W6        29.45R WCI  32
KEARNEY        SUNNY     37 -11  12 W6        29.44R WCI  33
ORD            SUNNY     39  33  79 CALM      29.42R
YORK           SUNNY     37  37 100 W7        29.44F WCI  32
AURORA         SUNNY     37  37 100 NW7       29.43F WCI  31
LEXINGTON      SUNNY     34  32  94 W3        29.44R
HOLDREGE       SUNNY     37  34  89 W7        29.45R WCI  31
HEBRON         SUNNY     36  36 100 W7        29.45F WCI  31

...NEBRASKA PANHANDLE...

CITY           SKY/WX    TMP DP  RH WIND       PRES   REMARKS
CHADRON        MOSUNNY   25  23  92 SW6       29.42R WCI  18
ALLIANCE       SUNNY     27  24  89 W7        29.40R WCI  19
SCOTTSBLUFF    SUNNY     28  22  78 CALM      29.41S
SIDNEY         SUNNY     30  24  78 CALM      29.41R

...WESTERN AND NORTH CENTRAL NEBRASKA...

CITY           SKY/WX    TMP DP  RH WIND       PRES   REMARKS
VALENTINE      SUNNY     37  31  78 W8        29.39R WCI  31
AINSWORTH      SUNNY     37  33  89 W8        29.39R WCI  30
ONEILL         MOSUNNY   38  35  89 W8        29.40R WCI  32
BROKEN BOW     SUNNY     36  33  89 S5        29.41R WCI  32
IMPERIAL       SUNNY     33  26  75 W5        29.45R WCI  29
NORTH PLATTE   SUNNY     32  29  88 W6        29.43R WCI  26
MCCOOK         SUNNY     34  30  85 W10       29.45S WCI  26

...EASTERN NEBRASKA...

CITY           SKY/WX    TMP DP  RH WIND       PRES   REMARKS
NORFOLK        MOSUNNY   38  33  82 W8        29.41R WCI  32
SO SIOUX CITY  MOSUNNY   40  39  97 S6        29.40R
TEKAMAH        CLOUDY    36  35  96 SW10      29.44R FOG     WCI  28
COLUMBUS       SUNNY     37  34  87 W8        29.45R WCI  31
ALBION         MOSUNNY  N/A N/A N/A CALM      29.43R
OMAHA EPPLEY   CLOUDY    40  36  86 SW7       29.45R FOG
OFFUTT AFB     PTSUNNY   37  37 100 CALM      29.44S FOG
MILLARD        MOSUNNY   41  40  97 W6        29.45S
LINCOLN        SUNNY     40  36  86 W7        29.46S
NEBRASKA CITY  CLOUDY    36  36 100 W6        29.46R FOG     WCI  31
BEATRICE       SUNNY     38  38 100 W8        29.47R WCI  32
FALLS CITY     CLOUDY    40  39  97 W6        29.48R

...NORTHERN KANSAS...

CITY           SKY/WX    TMP DP  RH WIND       PRES   REMARKS
GOODLAND       SUNNY     33  30  88 CALM      29.41F
HILL CITY      SUNNY     36  32  85 NW5       29.46S WCI  32
NORTON         SUNNY     34  28  80 CALM      29.44
PHILLIPSBURG   SUNNY     37  36  93 W5        29.47R WCI  34
SMITH CENTER   SUNNY     34  34 100 CALM      29.47R
HAYS           SUNNY     38  34  85 S7        29.48R WCI  33
RUSSELL        SUNNY     36  33  89 S6        29.47R WCI  31
CONCORDIA      SUNNY     38  36  92 SW6       29.48R WCI  33
SALINA         SUNNY     39  36  89 S8        29.52R WCI  33
TOPEKA         MOSUNNY   39  38  96 S6        29.55R WCI  35



USA.gov is the U.S. government's official web portal to all federal, state and local government web resources and services.